20051111,000016,691211,33.424898,-117.883188,3.3,17.915,33.290,43.808,138.86,0.0,7.642,17.645,17.606, NaN,23.984,   NaN,16.52,1015.51,72.16,16.82,105.2,109.5,1.7,1.8,195.1,197.9,2.4,2.6,NaN, NaN,20.0,58.1,45.9,1131667216,1131667215,1,2.2,000016,000015,58.1,33.424860,-117.883391,2.48,NaN,NaN,17.919, NaN,NaN,NaN, NaN, NaN
20051111,000046,691240,33.425123,-117.882983,3.3,17.925,33.282,43.809,137.54,0.0,6.969,17.654,17.614, NaN,23.975,   NaN,16.52,1015.53,72.07,16.79,102.5,110.1,1.7,1.7,191.4,198.5,2.2,2.3,NaN, NaN,19.0,58.8,40.4,1131667246,1131667245,1,2.2,000046,000045,58.8,33.425083,-117.883183,2.28,NaN,NaN,17.929, NaN,NaN,NaN, NaN, NaN
20051111,000117,691272,33.425421,-117.882650,3.3,17.940,33.272,43.811,135.97,0.0,6.950,17.664,17.620, NaN,23.964,   NaN,16.52,1015.51,72.07,16.80,103.1,111.6,1.7,1.4,191.0,201.4,2.3,2.1,NaN, NaN,20.0,55.0,45.1,1131667277,1131667276,1,3.1,000077,000076,55.0,33.425376,-117.882848,3.32,NaN,NaN,17.944, NaN,NaN,NaN, NaN, NaN
20051111,000146,691300,33.425811,-117.882180,3.4,17.939,33.276,43.814,133.99,0.0,6.876,17.670,17.630, NaN,23.967,   NaN,16.51,1015.46,72.23,16.78,99.4,114.9,1.9,1.2,191.6,208.7,2.7,2.3,NaN, NaN,20.0,56.8,45.5,1131667306,1131667305,1,4.5,000106,000105,56.8,33.425765,-117.882378,4.69,NaN,NaN,17.943, NaN,NaN,NaN, NaN, NaN
20051111,000216,691330,33.426275,-117.881538,3.3,17.950,33.270,43.818,132.69,0.0,6.595,17.679,17.638, NaN,23.959,   NaN,16.50,1015.52,72.07,16.79,96.1,114.1,2.1,1.8,195.0,208.6,3.2,3.2,NaN, NaN,20.0,57.5,53.4,1131667336,1131667335,1,5.4,000136,000135,57.5,33.426221,-117.881738,5.64,NaN,NaN,17.954, NaN,NaN,NaN, NaN, NaN
20051111,000246,691361,33.426776,-117.880820,3.4,17.959,33.266,43.822,131.20,0.0,6.633,17.686,17.646, NaN,23.954,   NaN,16.48,1015.54,72.22,16.79,90.1,102.5,2.0,1.7,201.2,210.2,3.3,3.5,NaN, NaN,20.0,57.1,46.9,1131667366,1131667365,1,5.9,000166,000165,57.1,33.426725,-117.881020,5.88,NaN,NaN,17.963, NaN,NaN,NaN, NaN, NaN
20051111,000316,691391,33.427318,-117.880021,3.4,17.958,33.273,43.830,129.19,0.0,6.465,17.699,17.658, NaN,23.960,   NaN,16.49,1015.50,72.85,16.81,84.5,96.8,1.9,1.4,203.6,215.0,3.4,3.4,NaN, NaN,19.0,57.3,50.1,1131667396,1131667395,1,6.4,000196,000195,57.3,33.427268,-117.880205,6.59,NaN,NaN,17.962, NaN,NaN,NaN, NaN, NaN
20051111,000346,691420,33.427890,-117.879166,3.4,17.969,33.269,43.835,127.17,0.0,5.830,17.713,17.673, NaN,23.954,   NaN,16.48,1015.53,72.53,16.75,80.1,87.4,2.0,1.4,203.2,217.0,3.5,3.5,NaN, NaN,19.0,57.1,52.9,1131667426,1131667425,1,6.8,000226,000225,57.1,33.427846,-117.879348,6.94,NaN,NaN,17.973, NaN,NaN,NaN, NaN, NaN
20051111,000416,691450,33.428486,-117.878276,3.4,17.987,33.259,43.841,125.47,0.0,5.773,17.731,17.694, NaN,23.942,   NaN,16.46,1015.53,72.10,16.74,73.2,59.3,2.0,1.0,203.5,224.0,3.4,3.3,NaN, NaN,18.0,57.0,53.2,1131667456,1131667455,1,6.9,000256,000255,57.0,33.428441,-117.878453,7.19,NaN,NaN,17.991, NaN,NaN,NaN, NaN, NaN
20051111,000446,691480,33.429106,-117.877306,3.4,18.002,33.251,43.846,123.49,0.0,5.904,17.747,17.710, NaN,23.933,   NaN,16.46,1015.54,72.11,16.73,69.2,54.5,1.9,0.9,205.6,225.9,3.4,3.3,NaN, NaN,19.0,57.8,52.8,1131667486,1131667485,1,7.5,000286,000285,57.8,33.429056,-117.877506,7.44,NaN,NaN,18.006, NaN,NaN,NaN, NaN, NaN
20051111,000516,691510,33.429750,-117.876305,3.5,18.026,33.236,43.851,121.66,0.0,6.203,17.766,17.727, NaN,23.915,   NaN,16.47,1015.53,72.31,16.72,65.5,67.2,2.1,1.2,203.7,220.2,3.4,3.6,NaN, NaN,19.0,57.1,52.1,1131667516,1131667515,1,7.8,000316,000315,57.1,33.429695,-117.876500,8.04,NaN,NaN,18.030, NaN,NaN,NaN, NaN, NaN
20051111,000546,691541,33.430450,-117.875206,3.4,18.039,33.235,43.863,119.40,0.0,5.120,17.781,17.742, NaN,23.911,   NaN,16.46,1015.54,71.84,16.71,60.2,66.8,2.4,1.7,200.2,212.8,3.5,3.8,NaN, NaN,20.0,57.0,51.2,1131667546,1131667545,1,8.5,000346,000345,57.0,33.430390,-117.875415,8.52,NaN,NaN,18.043, NaN,NaN,NaN, NaN, NaN
20051111,000616,691570,33.431183,-117.874040,3.5,18.056,33.230,43.873,117.20,0.0,5.419,17.803,17.765, NaN,23.903,   NaN,16.45,1015.55,71.33,16.70,57.1,62.1,2.5,1.8,201.0,212.2,3.6,3.8,NaN, NaN,19.0,57.1,53.8,1131667576,1131667575,1,9.0,000376,000375,57.3,33.431123,-117.874238,9.17,NaN,NaN,18.060, NaN,NaN,NaN, NaN, NaN
20051111,000646,691600,33.431946,-117.872790,3.4,18.062,33.232,43.881,114.94,0.0,5.269,17.822,17.786, NaN,23.903,   NaN,16.46,1015.54,71.19,16.73,57.3,61.1,2.4,1.7,205.0,215.4,3.9,4.0,NaN, NaN,19.0,57.3,51.9,1131667606,1131667605,1,9.4,000406,000405,57.3,33.431891,-117.873018,9.36,NaN,NaN,18.066, NaN,NaN,NaN, NaN, NaN
20051111,000716,691630,33.432736,-117.871543,3.5,18.080,33.227,43.893,113.30,0.0,5.306,17.844,17.809, NaN,23.895,   NaN,16.47,1015.53,71.27,16.73,53.3,59.1,2.3,1.9,208.5,214.8,3.9,4.1,NaN, NaN,17.0,57.0,52.5,1131667636,1131667635,1,9.7,000436,000435,57.0,33.432686,-117.871748,9.91,NaN,NaN,18.084, NaN,NaN,NaN, NaN, NaN
20051111,000746,691660,33.433535,-117.870231,3.5,18.109,33.212,43.903,111.55,0.0,6.278,17.860,17.823, NaN,23.877,   NaN,16.47,1015.53,71.38,16.73,46.4,52.8,2.5,2.2,208.2,211.0,3.7,4.0,NaN, NaN,17.0,57.1,54.4,1131667666,1131667665,1,9.8,000466,000465,57.1,33.433490,-117.870438,10.00,NaN,NaN,18.113, NaN,NaN,NaN, NaN, NaN
20051111,000816,691690,33.434351,-117.868903,3.5,18.114,33.221,43.918,109.02,0.0,4.578,17.870,17.832, NaN,23.882,   NaN,16.47,1015.52,71.11,16.72,45.6,50.9,2.6,2.4,207.2,209.0,3.7,3.9,NaN, NaN,17.0,57.1,53.4,1131667696,1131667695,1,10.1,000496,000495,57.1,33.434303,-117.869116,10.20,NaN,NaN,18.118, NaN,NaN,NaN, NaN, NaN
20051111,000847,691721,33.435193,-117.867525,3.5,18.143,33.209,43.932,107.11,0.0,4.765,17.874,17.835, NaN,23.866,   NaN,16.47,1015.51,71.11,16.74,48.0,53.6,2.6,2.3,207.2,210.2,3.8,4.1,NaN, NaN,18.0,57.8,54.7,1131667727,1131667726,1,9.9,000527,000526,57.8,33.435140,-117.867736,10.29,NaN,NaN,18.147, NaN,NaN,NaN, NaN, NaN
20051111,000917,691751,33.436005,-117.866185,3.5,18.142,33.225,43.950,105.09,0.0,4.410,17.867,17.830, NaN,23.878,   NaN,16.49,1015.53,71.36,16.72,52.2,58.2,2.7,2.2,206.2,212.6,4.1,4.3,NaN, NaN,18.0,57.3,54.6,1131667757,1131667756,1,10.0,000557,000556,57.3,33.435955,-117.866390,10.21,NaN,NaN,18.146, NaN,NaN,NaN, NaN, NaN
20051111,000946,691780,33.436786,-117.864888,3.5,18.143,33.236,43.963,103.43,0.0,3.980,17.863,17.824, NaN,23.886,   NaN,16.49,1015.52,71.21,16.73,55.5,61.3,2.6,1.9,206.6,215.3,4.2,4.5,NaN, NaN,19.0,57.1,53.2,1131667786,1131667785,1,10.0,000586,000585,57.1,33.436738,-117.865100,10.24,NaN,NaN,18.147, NaN,NaN,NaN, NaN, NaN
20051111,001017,691811,33.437615,-117.863511,3.5,18.134,33.255,43.978,100.85,0.0,4.391,17.868,17.829, NaN,23.903,   NaN,16.50,1015.53,71.57,16.75,54.0,58.3,2.5,1.9,208.7,215.9,4.1,4.4,NaN, NaN,19.0,57.6,54.3,1131667817,1131667816,1,10.0,000617,000616,57.6,33.437565,-117.863715,10.21,NaN,NaN,18.138, NaN,NaN,NaN, NaN, NaN
20051111,001047,691841,33.438421,-117.862173,3.6,18.133,33.268,43.992,98.92,0.0,4.540,17.879,17.841, NaN,23.913,   NaN,16.52,1015.50,72.51,16.78,52.2,55.8,2.8,2.3,204.8,210.7,4.0,4.2,NaN, NaN,20.0,57.8,53.2,1131667847,1131667846,1,9.9,000647,000646,57.8,33.438378,-117.862380,10.20,NaN,NaN,18.137, NaN,NaN,NaN, NaN, NaN
20051111,001117,691871,33.439225,-117.860830,3.5,18.139,33.271,44.001,97.24,0.0,4.839,17.887,17.848, NaN,23.914,   NaN,16.52,1015.53,72.52,16.78,54.7,57.0,3.1,2.5,200.6,208.6,4.2,4.3,NaN, NaN,20.0,57.5,53.7,1131667877,1131667876,1,10.0,000677,000676,57.5,33.439185,-117.861036,10.20,NaN,NaN,18.143, NaN,NaN,NaN, NaN, NaN
20051111,001147,691901,33.440016,-117.859485,3.4,18.154,33.265,44.009,94.94,0.0,4.970,17.892,17.855, NaN,23.906,   NaN,16.51,1015.50,72.34,16.76,54.4,57.9,3.0,2.3,201.9,210.6,4.2,4.4,NaN, NaN,21.0,58.0,54.2,1131667907,1131667906,1,10.0,000707,000706,58.0,33.439996,-117.859686,10.29,NaN,NaN,18.158, NaN,NaN,NaN, NaN, NaN
20051111,001217,691931,33.440828,-117.858136,3.5,18.160,33.266,44.016,93.28,0.0,4.914,17.898,17.859, NaN,23.905,   NaN,16.50,1015.54,72.37,16.76,48.8,55.2,3.1,2.6,200.7,206.5,3.9,4.2,NaN, NaN,22.0,57.1,54.8,1131667937,1131667936,1,10.0,000737,000736,57.1,33.440798,-117.858340,10.16,NaN,NaN,18.164, NaN,NaN,NaN, NaN, NaN
20051111,001247,691962,33.441641,-117.856791,3.5,18.162,33.269,44.021,91.28,0.0,4.765,17.901,17.861, NaN,23.907,   NaN,16.49,1015.50,72.59,16.77,47.1,53.7,3.1,2.7,201.1,205.9,3.8,4.1,NaN, NaN,22.0,57.8,53.8,1131667967,1131667966,1,9.9,000767,000766,57.8,33.441605,-117.856993,10.28,NaN,NaN,18.166, NaN,NaN,NaN, NaN, NaN
20051111,001317,691991,33.442450,-117.855445,3.5,18.169,33.270,44.028,89.32,0.0,4.223,17.905,17.866, NaN,23.906,   NaN,16.50,1015.48,73.07,16.78,44.3,51.8,3.0,2.7,202.5,206.0,3.6,4.1,NaN, NaN,22.0,57.5,56.5,1131667997,1131667996,1,9.7,000797,000796,57.5,33.442413,-117.855648,10.14,NaN,NaN,18.173, NaN,NaN,NaN, NaN, NaN
20051111,001347,692021,33.443250,-117.854148,3.5,18.169,33.274,44.034,87.89,0.0,4.634,17.911,17.869, NaN,23.909,   NaN,16.50,1015.51,73.05,16.73,43.8,51.7,3.3,2.9,198.5,202.5,3.6,4.0,NaN, NaN,21.0,56.8,55.3,1131668026,1131668025,1,9.9,000826,000825,56.8,33.443201,-117.854343,10.21,NaN,NaN,18.173, NaN,NaN,NaN, NaN, NaN
20051111,001417,692051,33.444093,-117.852755,3.5,18.172,33.277,44.041,86.36,0.0,4.447,17.912,17.868, NaN,23.911,   NaN,16.49,1015.48,73.01,16.75,48.2,52.9,3.1,2.8,199.8,204.9,3.8,4.1,NaN, NaN,19.0,57.3,53.6,1131668057,1131668056,1,10.4,000857,000856,57.3,33.444048,-117.852955,10.01,NaN,NaN,18.176, NaN,NaN,NaN, NaN, NaN
20051111,001447,692081,33.444906,-117.851400,3.5,18.176,33.281,44.048,84.65,0.0,4.466,17.914,17.876, NaN,23.913,   NaN,16.50,1015.51,73.28,16.77,46.8,49.8,2.9,2.6,204.4,207.6,3.8,4.0,NaN, NaN,18.0,57.5,53.7,1131668087,1131668086,1,10.1,000887,000886,57.5,33.444853,-117.851600,10.22,NaN,NaN,18.180, NaN,NaN,NaN, NaN, NaN
20051111,001517,692111,33.445725,-117.850043,3.5,18.177,33.283,44.052,82.74,0.0,5.026,17.918,17.879, NaN,23.914,   NaN,16.51,1015.51,73.30,16.77,41.8,45.9,2.8,2.6,205.7,207.7,3.6,3.8,NaN, NaN,17.0,57.8,53.5,1131668117,1131668116,1,10.1,000917,000916,57.8,33.445673,-117.850248,10.25,NaN,NaN,18.181, NaN,NaN,NaN, NaN, NaN
20051111,001547,692142,33.446556,-117.848690,3.5,18.182,33.282,44.056,81.32,0.0,4.709,17.921,17.884, NaN,23.912,   NaN,16.53,1015.47,73.83,16.77,37.8,42.0,3.0,2.8,204.9,205.5,3.3,3.6,NaN, NaN,15.0,57.8,54.0,1131668146,1131668146,1,10.1,000947,000946,57.8,33.446488,-117.848891,10.22,NaN,NaN,18.186, NaN,NaN,NaN, NaN, NaN
20051111,001617,692171,33.447360,-117.847376,3.5,18.188,33.282,44.061,79.96,0.0,4.877,17.930,17.892, NaN,23.911,   NaN,16.53,1015.48,73.60,16.75,41.4,43.2,3.1,3.0,201.7,202.9,3.5,3.6,NaN, NaN,16.0,57.4,54.2,1131668176,1131668175,1,10.3,000976,000975,57.3,33.447280,-117.847571,10.20,NaN,NaN,18.192, NaN,NaN,NaN, NaN, NaN
20051111,001647,692201,33.448205,-117.845978,3.5,18.192,33.281,44.065,78.05,0.0,5.232,17.931,17.892, NaN,23.909,   NaN,16.53,1015.42,73.33,16.77,46.6,48.3,3.1,2.9,201.3,203.6,3.8,3.8,NaN, NaN,16.0,57.6,54.4,1131668207,1131668206,1,10.1,001007,001006,57.6,33.448130,-117.846178,10.30,NaN,NaN,18.196, NaN,NaN,NaN, NaN, NaN
20051111,001718,692232,33.449030,-117.844630,3.5,18.202,33.278,44.071,76.77,0.0,3.513,17.931,17.890, NaN,23.904,   NaN,16.52,1015.45,72.73,16.73,49.6,52.5,3.0,2.7,202.0,205.9,3.9,4.1,NaN, NaN,17.0,57.8,53.8,1131668237,1131668237,1,10.3,001037,001037,57.8,33.448986,-117.844780,10.21,NaN,NaN,18.206, NaN,NaN,NaN, NaN, NaN
20051111,001747,692261,33.449855,-117.843285,3.5,18.203,33.280,44.074,75.23,0.0,3.532,17.931,17.890, NaN,23.906,   NaN,16.53,1015.45,72.68,16.82,50.5,55.2,2.9,2.5,203.3,208.7,4.0,4.2,NaN, NaN,18.0,58.2,52.4,1131668267,1131668266,1,10.2,001067,001066,58.2,33.449785,-117.843473,10.36,NaN,NaN,18.207, NaN,NaN,NaN, NaN, NaN
20051111,001817,692292,33.450675,-117.841945,3.5,18.196,33.291,44.080,73.80,0.0,3.326,17.933,17.895, NaN,23.916,   NaN,16.52,1015.42,72.61,16.81,45.0,52.5,2.8,2.6,205.0,207.4,3.7,4.1,NaN, NaN,18.0,57.5,53.1,1131668297,1131668296,1,10.2,001097,001096,57.5,33.450608,-117.842145,10.10,NaN,NaN,18.200, NaN,NaN,NaN, NaN, NaN
20051111,001847,692321,33.451488,-117.840595,3.5,18.199,33.293,44.084,72.07,0.0,3.662,17.942,17.900, NaN,23.916,   NaN,16.53,1015.41,73.25,16.81,40.9,48.6,3.1,3.0,201.0,202.0,3.5,3.9,NaN, NaN,19.0,57.6,54.0,1131668327,1131668326,1,10.1,001127,001126,57.6,33.451418,-117.840786,10.15,NaN,NaN,18.203, NaN,NaN,NaN, NaN, NaN
20051111,001917,692351,33.452298,-117.839256,3.5,18.203,33.293,44.088,71.02,0.0,4.447,17.937,17.895, NaN,23.915,   NaN,16.50,1015.41,72.88,16.75,38.7,43.5,3.4,3.4,197.9,196.8,3.3,3.5,NaN, NaN,19.0,57.6,54.0,1131668357,1131668356,1,10.0,001157,001156,57.6,33.452226,-117.839443,10.26,NaN,NaN,18.207, NaN,NaN,NaN, NaN, NaN
20051111,001948,692383,33.453123,-117.837915,3.5,18.207,33.292,44.092,69.87,0.0,3.905,17.924,17.883, NaN,23.914,   NaN,16.47,1015.44,72.26,16.74,36.4,40.9,3.2,3.3,201.8,198.0,3.2,3.4,NaN, NaN,19.0,57.6,53.0,1131668387,1131668387,1,10.0,001187,001187,57.6,33.453070,-117.838056,10.16,NaN,NaN,18.211, NaN,NaN,NaN, NaN, NaN
20051111,002017,692411,33.453935,-117.836565,3.5,18.206,33.297,44.096,68.12,0.0,3.532,17.916,17.874, NaN,23.918,   NaN,16.46,1015.45,72.12,16.74,34.5,40.4,3.0,3.0,205.2,202.3,3.2,3.4,NaN, NaN,18.0,57.1,53.3,1131668417,1131668416,1,10.0,001217,001216,57.1,33.453893,-117.836695,9.96,NaN,NaN,18.210, NaN,NaN,NaN, NaN, NaN
20051111,002047,692441,33.454750,-117.835226,3.5,18.188,33.313,44.098,66.75,0.0,3.756,17.910,17.864, NaN,23.934,   NaN,16.45,1015.44,71.79,16.73,33.8,37.7,2.9,3.0,207.1,204.2,3.2,3.3,NaN, NaN,18.0,57.5,53.3,1131668447,1131668447,1,10.2,001247,001247,57.5,33.454723,-117.835350,10.16,NaN,NaN,18.192, NaN,NaN,NaN, NaN, NaN
20051111,002117,692472,33.455585,-117.833883,3.5,18.171,33.329,44.101,65.31,0.0,4.111,17.900,17.858, NaN,23.951,   NaN,16.47,1015.41,72.54,16.74,36.8,41.0,2.8,2.9,207.0,205.3,3.3,3.5,NaN, NaN,17.0,57.3,54.3,1131668477,1131668476,1,10.2,001277,001276,57.3,33.455508,-117.834065,10.12,NaN,NaN,18.175, NaN,NaN,NaN, NaN, NaN
20051111,002147,692501,33.456400,-117.832546,3.5,18.166,33.333,44.101,63.93,0.0,4.354,17.890,17.847, NaN,23.955,   NaN,16.48,1015.43,72.86,16.77,38.9,43.9,2.7,2.7,207.8,206.2,3.5,3.7,NaN, NaN,17.0,56.8,53.9,1131668507,1131668506,1,9.9,001307,001306,56.8,33.456326,-117.832731,10.12,NaN,NaN,18.170, NaN,NaN,NaN, NaN, NaN
20051111,002217,692531,33.457208,-117.831200,3.5,18.154,33.342,44.100,62.63,0.0,3.961,17.876,17.832, NaN,23.965,   NaN,16.48,1015.43,72.98,16.76,36.5,40.5,2.7,2.6,209.3,208.6,3.4,3.6,NaN, NaN,17.0,57.8,54.6,1131668537,1131668536,1,10.0,001337,001336,57.8,33.457141,-117.831395,10.17,NaN,NaN,18.158, NaN,NaN,NaN, NaN, NaN
20051111,002248,692562,33.458015,-117.829846,3.5,18.146,33.347,44.098,61.36,0.0,3.887,17.856,17.814, NaN,23.970,   NaN,16.47,1015.45,72.68,16.73,32.3,36.0,2.8,2.6,209.6,210.1,3.2,3.4,NaN, NaN,17.0,57.6,54.7,1131668567,1131668567,1,10.1,001367,001367,57.6,33.457976,-117.830001,10.05,NaN,NaN,18.150, NaN,NaN,NaN, NaN, NaN
20051111,002317,692591,33.458833,-117.828501,3.5,18.128,33.359,44.095,59.85,0.0,3.980,17.846,17.805, NaN,23.984,   NaN,16.47,1015.45,72.67,16.72,33.1,35.6,2.9,2.9,207.6,206.6,3.2,3.3,NaN, NaN,18.0,57.0,53.2,1131668597,1131668597,1,10.2,001397,001397,57.0,33.458788,-117.828651,10.15,NaN,NaN,18.132, NaN,NaN,NaN, NaN, NaN
20051111,002347,692622,33.459645,-117.827150,3.5,18.111,33.368,44.089,58.95,0.0,4.653,17.841,17.796, NaN,23.995,   NaN,16.46,1015.45,72.77,16.74,37.0,40.4,2.9,2.9,204.8,204.1,3.3,3.5,NaN, NaN,18.0,57.0,55.3,1131668627,1131668626,1,10.2,001427,001426,57.0,33.459560,-117.827355,10.11,NaN,NaN,18.115, NaN,NaN,NaN, NaN, NaN
20051111,002417,692651,33.460451,-117.825810,3.4,18.104,33.369,44.083,57.42,0.0,5.213,17.833,17.789, NaN,23.998,   NaN,18.23,1015.40,73.18,15.04,37.7,41.8,3.0,3.1,204.1,200.8,3.3,3.5,NaN, NaN,18.0,57.3,55.3,1131668657,1131668656,1,9.9,001457,001456,57.3,33.460366,-117.826021,10.16,NaN,NaN,18.108, NaN,NaN,NaN, NaN, NaN
20051111,002447,692681,33.461265,-117.824475,3.5,18.098,33.367,44.075,56.01,0.0,5.344,17.819,17.774, NaN,23.997,   NaN,20.55,1015.50,72.23,15.48,36.4,39.9,3.0,3.2,204.2,198.9,3.2,3.3,NaN, NaN,18.0,57.5,55.5,1131668687,1131668686,1,9.8,001487,001486,57.5,33.461175,-117.824681,10.07,NaN,NaN,18.102, NaN,NaN,NaN, NaN, NaN
20051111,002517,692711,33.462078,-117.823136,3.5,18.093,33.365,44.068,56.96,0.0,4.802,17.806,17.761, NaN,23.997,   NaN,16.56,1015.53,74.43,17.69,37.1,39.9,2.8,2.9,206.4,204.7,3.3,3.4,NaN, NaN,17.0,57.5,54.2,1131668717,1131668716,1,9.8,001517,001516,57.5,33.461983,-117.823350,10.16,NaN,NaN,18.097, NaN,NaN,NaN, NaN, NaN
20051111,002547,692741,33.462890,-117.821808,3.5,18.080,33.367,44.057,54.19,0.0,4.597,17.800,17.758, NaN,24.002,   NaN,16.48,1015.49,73.70,16.86,36.4,39.8,2.6,2.5,210.2,210.0,3.4,3.5,NaN, NaN,16.0,57.5,53.0,1131668747,1131668746,1,9.8,001547,001546,57.5,33.462801,-117.822023,10.13,NaN,NaN,18.084, NaN,NaN,NaN, NaN, NaN
20051111,002617,692771,33.463701,-117.820471,3.5,18.080,33.359,44.049,53.03,0.0,5.381,17.798,17.755, NaN,23.996,   NaN,16.46,1015.51,73.10,16.73,33.1,37.6,2.6,2.6,211.4,210.3,3.2,3.4,NaN, NaN,17.0,56.8,54.3,1131668777,1131668777,1,9.7,001577,001577,56.8,33.463656,-117.820598,10.34,NaN,NaN,18.084, NaN,NaN,NaN, NaN, NaN
20051111,002647,692802,33.464515,-117.819136,3.5,18.076,33.354,44.039,51.98,0.0,4.092,17.790,17.744, NaN,23.994,   NaN,16.45,1015.52,73.09,16.73,31.4,35.4,2.6,2.6,211.3,211.0,3.2,3.3,NaN, NaN,17.0,58.0,54.0,1131668807,1131668806,1,9.8,001607,001606,58.0,33.464423,-117.819325,10.05,NaN,NaN,18.080, NaN,NaN,NaN, NaN, NaN
20051111,002717,692831,33.465321,-117.817795,3.5,18.067,33.355,44.031,50.32,0.0,3.233,17.782,17.736, NaN,23.997,   NaN,16.47,1015.50,73.58,16.74,31.1,35.1,2.7,2.7,210.2,209.4,3.1,3.3,NaN, NaN,17.0,57.1,54.9,1131668837,1131668836,1,9.8,001637,001636,57.1,33.465221,-117.817983,10.33,NaN,NaN,18.071, NaN,NaN,NaN, NaN, NaN
20051111,002747,692861,33.466125,-117.816450,3.4,18.056,33.358,44.024,49.12,0.0,3.065,17.775,17.732, NaN,24.001,   NaN,16.49,1015.51,73.93,16.72,34.0,38.6,2.9,2.9,206.3,204.7,3.1,3.4,NaN, NaN,17.0,57.1,54.5,1131668867,1131668866,1,9.7,001667,001666,57.1,33.466030,-117.816651,10.00,NaN,NaN,18.060, NaN,NaN,NaN, NaN, NaN
20051111,002817,692891,33.466931,-117.815118,3.5,18.035,33.368,44.016,48.12,0.0,2.915,17.771,17.728, NaN,24.014,   NaN,16.50,1015.54,73.78,16.74,34.7,38.4,3.0,3.0,204.2,202.6,3.1,3.3,NaN, NaN,17.0,57.2,55.2,1131668897,1131668896,1,9.9,001697,001696,57.1,33.466831,-117.815315,10.04,NaN,NaN,18.039, NaN,NaN,NaN, NaN, NaN
20051111,002847,692921,33.467733,-117.813780,3.5,18.040,33.356,44.007,46.85,0.0,2.710,17.770,17.726, NaN,24.004,   NaN,16.49,1015.50,73.41,16.75,33.2,35.2,3.1,3.1,203.1,202.7,3.0,3.1,NaN, NaN,18.0,57.5,54.5,1131668927,1131668926,1,9.8,001727,001726,57.1,33.467641,-117.813983,10.14,NaN,NaN,18.044, NaN,NaN,NaN, NaN, NaN
20051111,002917,692951,33.468545,-117.812431,3.5,18.043,33.348,43.999,45.53,0.0,2.710,17.770,17.726, NaN,23.997,   NaN,16.48,1015.51,72.96,16.76,37.1,40.3,3.0,2.9,203.5,204.4,3.3,3.4,NaN, NaN,18.0,57.5,54.5,1131668957,1131668956,1,10.1,001757,001756,57.5,33.468463,-117.812633,10.14,NaN,NaN,18.047, NaN,NaN,NaN, NaN, NaN
20051111,002948,692982,33.469355,-117.811086,3.5,18.034,33.348,43.991,44.13,0.0,2.635,17.766,17.722, NaN,23.999,   NaN,16.47,1015.52,72.70,16.73,41.2,44.4,2.9,2.9,203.8,203.4,3.5,3.6,NaN, NaN,17.0,57.2,52.2,1131668987,1131668987,1,10.0,001787,001787,57.2,33.469306,-117.811250,10.09,NaN,NaN,18.038, NaN,NaN,NaN, NaN, NaN
20051111,003017,693011,33.470158,-117.809740,3.5,18.032,33.342,43.983,43.22,0.0,2.542,17.763,17.716, NaN,23.995,   NaN,16.47,1015.53,72.21,16.70,42.6,46.6,2.9,2.8,203.9,204.5,3.6,3.8,NaN, NaN,17.0,57.1,53.6,1131669017,1131669017,1,9.9,001817,001817,57.1,33.470113,-117.809905,10.27,NaN,NaN,18.036, NaN,NaN,NaN, NaN, NaN
20051111,003047,693041,33.470956,-117.808395,3.5,18.026,33.343,43.978,41.78,0.0,2.579,17.757,17.714, NaN,23.997,   NaN,16.47,1015.50,72.11,16.71,41.5,47.5,3.0,2.7,203.1,206.6,3.5,3.8,NaN, NaN,17.0,57.3,55.2,1131669047,1131669046,1,9.8,001847,001846,57.3,33.470895,-117.808590,10.12,NaN,NaN,18.030, NaN,NaN,NaN, NaN, NaN
20051111,003117,693071,33.471758,-117.807046,3.5,18.024,33.338,43.970,40.91,0.0,2.616,17.760,17.717, NaN,23.994,   NaN,16.48,1015.52,72.43,16.74,40.7,47.0,3.0,2.7,202.9,206.8,3.4,3.8,NaN, NaN,17.0,64.1,55.8,1131669077,1131669077,1,9.7,001877,001877,64.1,33.471733,-117.807198,10.19,NaN,NaN,18.028, NaN,NaN,NaN, NaN, NaN
20051111,003147,693101,33.472330,-117.805591,3.5,18.022,33.336,43.966,39.68,0.0,2.784,17.769,17.729, NaN,23.993,   NaN,16.48,1015.53,72.05,16.71,40.1,45.9,3.0,2.9,208.2,208.4,3.4,3.7,NaN, NaN,18.0,68.1,65.5,1131669107,1131669107,1,9.8,001907,001907,68.1,33.472321,-117.805745,9.89,NaN,NaN,18.026, NaN,NaN,NaN, NaN, NaN
20051111,003218,693132,33.472885,-117.804116,3.5,18.027,33.327,43.960,38.67,0.0,3.009,17.773,17.733, NaN,23.985,   NaN,16.49,1015.51,72.25,16.72,40.5,46.0,3.0,3.1,212.0,210.4,3.3,3.6,NaN, NaN,19.0,67.8,65.3,1131669137,1131669137,1,9.8,001937,001937,67.8,33.472875,-117.804260,10.02,NaN,NaN,18.031, NaN,NaN,NaN, NaN, NaN
20051111,003247,693161,33.473446,-117.802630,3.5,18.035,33.317,43.956,37.82,0.0,3.046,17.776,17.735, NaN,23.975,   NaN,16.49,1015.53,72.27,16.75,40.8,44.4,3.0,3.0,212.3,211.3,3.4,3.5,NaN, NaN,19.0,67.6,66.0,1131669167,1131669166,1,10.0,001967,001966,67.6,33.473423,-117.802820,10.09,NaN,NaN,18.039, NaN,NaN,NaN, NaN, NaN
20051111,003317,693191,33.474006,-117.801150,3.5,18.039,33.313,43.955,36.44,0.0,3.233,17.769,17.726, NaN,23.971,   NaN,16.50,1015.49,72.49,16.73,39.0,41.9,3.2,3.3,208.8,207.9,3.3,3.4,NaN, NaN,19.0,67.9,64.9,1131669197,1131669196,1,9.6,001997,001996,67.9,33.473985,-117.801345,10.25,NaN,NaN,18.043, NaN,NaN,NaN, NaN, NaN
20051111,003347,693221,33.474571,-117.799671,3.5,18.041,33.311,43.954,35.60,0.0,2.784,17.751,17.707, NaN,23.969,   NaN,16.48,1015.51,72.46,16.73,41.5,45.5,3.4,3.3,206.3,206.9,3.4,3.6,NaN, NaN,19.0,67.9,65.6,1131669227,1131669226,1,9.7,002027,002026,67.9,33.474551,-117.799870,10.11,NaN,NaN,18.045, NaN,NaN,NaN, NaN, NaN
20051111,003417,693251,33.475138,-117.798195,3.5,18.026,33.323,43.954,34.53,0.0,2.915,17.738,17.693, NaN,23.982,   NaN,16.48,1015.49,72.94,16.75,43.3,48.4,3.2,3.1,208.9,209.5,3.5,3.8,NaN, NaN,19.0,67.5,65.2,1131669257,1131669256,1,9.9,002057,002056,67.5,33.475113,-117.798386,10.07,NaN,NaN,18.030, NaN,NaN,NaN, NaN, NaN
20051111,003447,693281,33.475703,-117.796711,3.5,18.004,33.342,43.956,33.37,0.0,2.803,17.729,17.685, NaN,24.002,   NaN,16.49,1015.48,73.40,16.75,44.3,50.0,3.2,3.1,209.3,209.9,3.6,3.8,NaN, NaN,19.0,67.6,65.1,1131669287,1131669286,1,9.9,002087,002086,67.6,33.475671,-117.796901,10.18,NaN,NaN,18.008, NaN,NaN,NaN, NaN, NaN
20051111,003517,693312,33.476273,-117.795221,3.5,17.996,33.348,43.955,32.19,0.0,2.953,17.727,17.684, NaN,24.008,   NaN,16.50,1015.51,73.78,16.76,43.7,47.8,3.4,3.3,205.1,207.1,3.5,3.7,NaN, NaN,19.0,67.6,64.6,1131669317,1131669316,1,9.7,002117,002116,67.6,33.476243,-117.795418,10.12,NaN,NaN,18.000, NaN,NaN,NaN, NaN, NaN
20051111,003548,693342,33.476865,-117.793681,3.5,17.986,33.354,43.952,31.58,0.0,3.233,17.731,17.687, NaN,24.015,   NaN,16.51,1015.51,74.21,16.74,41.6,46.7,3.7,3.4,201.3,204.8,3.4,3.7,NaN, NaN,19.0,67.3,65.4,1131669347,1131669347,1,9.9,002148,002147,67.3,33.476838,-117.793880,10.10,NaN,NaN,17.990, NaN,NaN,NaN, NaN, NaN
20051111,003617,693371,33.477413,-117.792235,3.5,17.987,33.350,43.948,30.58,0.0,3.289,17.730,17.687, NaN,24.012,   NaN,16.51,1015.51,74.24,16.73,41.5,46.9,3.7,3.6,200.8,202.4,3.4,3.7,NaN, NaN,19.0,67.8,65.6,1131669377,1131669376,1,10.1,002177,002176,67.8,33.477388,-117.792428,10.00,NaN,NaN,17.991, NaN,NaN,NaN, NaN, NaN
20051111,003647,693401,33.477986,-117.790736,3.5,17.989,33.341,43.940,29.99,0.0,3.401,17.728,17.683, NaN,24.005,   NaN,16.49,1015.48,73.71,16.73,40.8,46.5,3.8,3.8,199.0,199.7,3.3,3.7,NaN, NaN,19.0,67.5,64.4,1131669407,1131669406,1,10.0,002207,002206,67.5,33.477963,-117.790925,10.18,NaN,NaN,17.993, NaN,NaN,NaN, NaN, NaN